Weather History for Eagle River, WI

Change the Weather History Date:

Monday, December 3, 2012

  Actual Average Record
Temperature  
Mean Temperature 42 °F -  
Max Temperature 53 °F 29 °F 57 °F (1998)
Min Temperature 32 °F 16 °F -11 °F (2002)
Degree Days  
Heating Degree Days 22    
Moisture  
Dew Point 41 °F    
Average Humidity 97    
Maximum Humidity 100    
Minimum Humidity 81    
Precipitation  
Precipitation 0.02 in - - ()
Sea Level Pressure  
Sea Level Pressure 29.73 in    
Wind  
Wind Speed 9 mph (SSW)    
Max Wind Speed 17 mph    
Max Gust Speed 30 mph    
Visibility 3 miles    
Events Fog , Rain    
Averages and records for this station are not official NWS values.
T = Trace of Precipitation, MM = Missing Value Source: NWS Daily Summary

Daily Weather History Graph

Daily Weather History Graph

Search for Another Location

Airport:

Trip Planner

Search our weather history database for the weather conditions in past years. The results will help you decide how hot, cold, wet, or windy it might be!

Date:

Astronomy

Dec. 03, 2012 Rise Set
Actual Time 7:21 AM CST 4:12 PM CST
Civil Twilight 6:47 AM CST 4:46 PM CST
Nautical Twilight 6:09 AM CST 5:24 PM CST
Astronomical Twilight 5:33 AM CST 6:00 PM CST
Moon 9:08 PM CST (12/3) 10:36 AM CST (12/3)
Length of Visible Light 9h 59m
Length of Day
8h 51m
Waning Gibbous, 78% of the Moon is Illuminated
Dec 3
Waning Gibbous
Dec 6
Last Quarter
Dec 13
New
Dec 19
First Quarter
Dec 28
Full

Hourly Weather History & Observations

Time (CST) Temp. Windchill Dew Point Humidity Pressure Visibility Wind Dir Wind Speed Gust Speed Precip Events Conditions
12:15 AM 32.0 °F 24.8 °F 32.0 °F 100% 29.94 in 1.0 mi South 8.1 mph 16.1 mph N/A   Overcast
12:35 AM 32.0 °F 24.8 °F 32.0 °F 100% 29.93 in 1.0 mi South 8.1 mph - N/A   Overcast
12:55 AM 32.0 °F 25.6 °F 32.0 °F 100% 29.93 in 1.0 mi South 6.9 mph - N/A   Overcast
1:15 AM 33.8 °F 28.6 °F 33.8 °F 100% 29.93 in 0.8 mi SSE 5.8 mph - N/A   Overcast
1:35 AM 33.8 °F 28.6 °F 33.8 °F 100% 29.92 in 0.8 mi SSE 5.8 mph - N/A   Overcast
1:55 AM 33.8 °F 27.0 °F 33.8 °F 100% 29.91 in 0.8 mi SSE 8.1 mph - N/A   Overcast
2:15 AM 33.8 °F 27.7 °F 33.8 °F 100% 29.91 in 0.8 mi SSE 6.9 mph - N/A   Overcast
2:35 AM 33.8 °F 28.6 °F 33.8 °F 100% 29.93 in 0.8 mi South 5.8 mph - N/A   Overcast
2:55 AM 35.6 °F 30.7 °F 35.6 °F 100% 29.90 in 0.5 mi SSE 5.8 mph - N/A Fog Fog
3:15 AM 35.6 °F 29.2 °F 35.6 °F 100% 29.90 in 0.5 mi South 8.1 mph - N/A Fog Fog
3:35 AM 35.6 °F 29.9 °F 35.6 °F 100% 29.88 in 0.5 mi SSE 6.9 mph - N/A Fog Fog
3:55 AM 35.6 °F 29.9 °F 35.6 °F 100% 29.87 in 0.5 mi SSE 6.9 mph - N/A Fog Fog
4:15 AM 35.6 °F 30.7 °F 35.6 °F 100% 29.85 in 0.5 mi SSE 5.8 mph - N/A Fog Fog
4:35 AM 35.6 °F 30.7 °F 35.6 °F 100% 29.85 in 0.5 mi South 5.8 mph - N/A Fog Fog
4:55 AM 37.4 °F 31.4 °F 37.4 °F 100% 29.84 in 0.5 mi SSE 8.1 mph - N/A Fog Fog
5:15 AM 37.4 °F 31.4 °F 37.4 °F 100% 29.84 in 0.8 mi South 8.1 mph - N/A   Overcast
5:35 AM 37.4 °F 31.4 °F 37.4 °F 100% 29.84 in 0.8 mi South 8.1 mph - N/A   Overcast
5:55 AM 37.4 °F 32.8 °F 37.4 °F 100% 29.84 in 1.0 mi South 5.8 mph - N/A   Overcast
6:15 AM 39.2 °F 33.6 °F 39.2 °F 100% 29.83 in 1.0 mi South 8.1 mph - N/A   Overcast
6:35 AM 39.2 °F 34.2 °F 39.2 °F 100% 29.82 in 0.8 mi South 6.9 mph - N/A   Overcast
6:55 AM 39.2 °F 33.0 °F 39.2 °F 100% 29.81 in 0.8 mi SSE 9.2 mph - N/A   Overcast
7:15 AM 41.0 °F 36.4 °F 41.0 °F 100% 29.79 in 0.5 mi SSE 6.9 mph - N/A Fog Fog
7:35 AM 41.0 °F 35.8 °F 41.0 °F 100% 29.79 in 0.2 mi South 8.1 mph - N/A Fog Fog
7:55 AM 41.0 °F 34.3 °F 41.0 °F 100% 29.78 in 0.5 mi South 11.5 mph - N/A Fog Fog
8:15 AM 41.0 °F 35.8 °F 41.0 °F 100% 29.78 in 0.5 mi SSE 8.1 mph - N/A Fog Fog
8:35 AM 41.0 °F 37.1 °F 41.0 °F 100% 29.77 in 0.5 mi SSE 5.8 mph - N/A Fog Fog
8:55 AM 41.0 °F 35.2 °F 41.0 °F 100% 29.75 in 0.5 mi SSE 9.2 mph - N/A Fog Fog
9:15 AM 41.0 °F 35.2 °F 41.0 °F 100% 29.74 in 0.5 mi SSE 9.2 mph - N/A Fog Fog
9:35 AM 41.0 °F 34.3 °F 41.0 °F 100% 29.73 in 0.5 mi SSE 11.5 mph 21.9 mph N/A Fog Fog
9:55 AM 42.8 °F 37.5 °F 42.8 °F 100% 29.72 in 0.5 mi SSE 9.2 mph 16.1 mph N/A Fog Fog
10:15 AM 42.8 °F 37.5 °F 42.8 °F 100% 29.71 in 0.5 mi SSE 9.2 mph 16.1 mph N/A Fog Fog
10:35 AM 42.8 °F 37.5 °F 42.8 °F 100% 29.69 in 0.5 mi SSE 9.2 mph - N/A Fog Fog
10:55 AM 44.6 °F 38.8 °F 44.6 °F 100% 29.68 in 0.5 mi South 11.5 mph 18.4 mph N/A Fog Fog
11:15 AM 44.6 °F 38.1 °F 44.6 °F 100% 29.65 in 0.8 mi SSE 13.8 mph 23.0 mph N/A   Overcast
11:55 AM 44.6 °F 38.4 °F 44.6 °F 100% 29.62 in 0.5 mi South 12.7 mph 17.3 mph N/A Fog Fog
12:15 PM 44.6 °F 38.8 °F 44.6 °F 100% 29.61 in 0.5 mi South 11.5 mph 21.9 mph N/A Fog Fog
12:35 PM 46.4 °F 41.1 °F 46.4 °F 100% 29.61 in 0.8 mi South 11.5 mph - N/A   Light Drizzle
12:55 PM 46.4 °F 43.5 °F 46.4 °F 100% 29.60 in 1.0 mi South 5.8 mph - N/A   Drizzle
1:15 PM 46.4 °F 41.1 °F 46.4 °F 100% 29.59 in 1.2 mi South 11.5 mph 17.3 mph N/A   Drizzle
1:35 PM 48.2 °F - 48.2 °F 100% 29.59 in 1.2 mi South 9.2 mph 16.1 mph N/A   Drizzle
1:55 PM 48.2 °F - 48.2 °F 100% 29.57 in 1.5 mi South 9.2 mph - N/A   Drizzle
2:15 PM 48.2 °F - 48.2 °F 100% 29.55 in 1.5 mi South 11.5 mph - 0.01 in   Drizzle
2:35 PM 50.0 °F - 50.0 °F 100% 29.56 in 2.5 mi South 9.2 mph - 0.01 in Rain Rain
2:55 PM 50.0 °F - 50.0 °F 100% 29.56 in 2.5 mi South 8.1 mph - 0.01 in   Drizzle
3:15 PM 50.0 °F - 50.0 °F 100% 29.56 in 2.0 mi South 6.9 mph - N/A   Drizzle
3:55 PM 51.8 °F - 51.8 °F 100% 29.56 in 3.0 mi SSW 9.2 mph - N/A   Drizzle
4:15 PM 51.8 °F - 51.8 °F 100% 29.56 in 3.0 mi SSW 10.4 mph 18.4 mph N/A Rain Light Rain
4:35 PM 51.8 °F - 51.8 °F 100% 29.55 in 4.0 mi SW 9.2 mph - N/A   Overcast
4:55 PM 53.6 °F - 53.6 °F 100% 29.56 in 5.0 mi SSW 11.5 mph 17.3 mph N/A   Light Drizzle
5:15 PM 53.6 °F - 53.6 °F 100% 29.55 in 5.0 mi SW 11.5 mph 20.7 mph N/A   Overcast
5:55 PM 53.6 °F - 51.8 °F 94% 29.58 in 4.0 mi West 15.0 mph 29.9 mph 0.01 in Rain Light Rain
6:15 PM 50.0 °F - 50.0 °F 100% 29.60 in 5.0 mi West 16.1 mph 23.0 mph N/A   Overcast
6:35 PM 48.2 °F - 46.4 °F 93% 29.60 in 7.0 mi West 13.8 mph 20.7 mph N/A   Mostly Cloudy
6:55 PM 48.2 °F - 46.4 °F 93% 29.62 in 7.0 mi West 9.2 mph - N/A   Overcast
7:15 PM 46.4 °F 41.5 °F 46.4 °F 100% 29.62 in 7.0 mi West 10.4 mph - N/A   Overcast
7:35 PM 46.4 °F 41.1 °F 44.6 °F 93% 29.64 in 7.0 mi West 11.5 mph 19.6 mph N/A   Overcast
7:55 PM 44.6 °F 39.7 °F 42.8 °F 93% 29.65 in 10.0 mi West 9.2 mph 17.3 mph N/A   Mostly Cloudy
8:15 PM 44.6 °F 38.8 °F 42.8 °F 93% 29.67 in 10.0 mi West 11.5 mph 19.6 mph N/A   Mostly Cloudy
8:35 PM 44.6 °F 37.2 °F 42.8 °F 93% 29.68 in 10.0 mi West 17.3 mph 21.9 mph N/A   Overcast
8:55 PM 42.8 °F 36.6 °F 41.0 °F 93% 29.69 in 10.0 mi West 11.5 mph 18.4 mph N/A   Scattered Clouds
9:15 PM 42.8 °F 35.4 °F 39.2 °F 87% 29.70 in 10.0 mi West 15.0 mph 19.6 mph N/A   Clear
9:35 PM 41.0 °F 32.5 °F 37.4 °F 87% 29.71 in 10.0 mi West 17.3 mph 21.9 mph N/A   Clear
9:55 PM 41.0 °F 33.9 °F 35.6 °F 81% 29.72 in 10.0 mi West 12.7 mph 21.9 mph N/A   Clear
10:15 PM 39.2 °F 31.6 °F 35.6 °F 87% 29.72 in 10.0 mi West 12.7 mph - N/A   Clear
10:35 PM 39.2 °F 31.6 °F 35.6 °F 87% 29.72 in 10.0 mi WSW 12.7 mph - N/A   Clear
10:55 PM 37.4 °F 30.3 °F 35.6 °F 93% 29.73 in 10.0 mi WSW 10.4 mph - N/A   Clear
11:15 PM 37.4 °F 28.9 °F 33.8 °F 87% 29.74 in 10.0 mi West 13.8 mph 19.6 mph N/A   Clear
11:35 PM 37.4 °F 28.9 °F 33.8 °F 87% 29.73 in 10.0 mi West 13.8 mph 24.2 mph N/A   Clear
11:55 PM 37.4 °F 28.5 °F 32.0 °F 81% 29.73 in 10.0 mi WSW 15.0 mph 20.7 mph N/A   Clear